Starlink 31377

operational
NORAD ID: 58938 Int'l Des: 2024-027 Owner: SPXS Country: US Constellation: starlink
LEOCIRCULAR

About Starlink 31377

Description loading...

Live Position

Loading 3D Globe...

Upcoming Passes

Altitude History

Altitude vs Time

uPlot chart will show altitude changes over time

Two-Line Element Set

1 58938U 24027H 25306.38616274 .00001157 00000-0 51200-4 0 9997
2 58938 53.1598 181.2105 0001372 95.3777 264.7381 15.30190339 97837
Epoch: Nov 2, 2025 • Age: 13 hours

Current Status

Altitude 478.2 km
Velocity 7.63 km/s
Sub-Earth Point -10.42°S, 15.67°W
Launch Date Feb 10, 2024
Age 1.7 years
Type internet

Technical Details

Classification Payload
Mass 730.00 kg
Dry Mass 700.00 kg
Total Mass 730.00 kg
Length 0.30 m
Diameter 4.10 m
Span 29.00 m
Shape Box + pan
Manufacturer SPXS
Bus Type Starlink V2M
Phase Status In Orbit
Owner/State SPXS/US

Large Constellations

Loading constellations...